| time (UTC) | temp F | wind direction | speed knots | gust knots | rain 1hr in | rain 24hr in | rain mn in | humidity % | barometer mb |
| 20260503032736 | 38 | 205 | 2.6 | 3.5 | 0.00 | 0.00 | 0.00 | 40 | 1026.6 |
| 20260503032235 | 38 | 202 | 2.6 | 2.6 | 0.00 | 0.00 | 0.00 | 38 | 1026.5 |
| 20260503031731 | 38 | 208 | 2.6 | 2.6 | 0.00 | 0.00 | 0.00 | 36 | 1026.5 |
| 20260503031229 | 38 | 205 | 2.6 | 2.6 | 0.00 | 0.00 | 0.00 | 38 | 1026.5 |
| 20260503030725 | 38 | 206 | 3.5 | 3.5 | 0.00 | 0.00 | 0.00 | 35 | 1026.8 |
| 20260503030222 | 38 | 201 | 2.6 | 2.6 | 0.00 | 0.00 | 0.00 | 40 | 1026.8 |
| 20260503025719 | 39 | 204 | 2.6 | 2.6 | 0.00 | 0.00 | 0.00 | 38 | 1026.6 |
| 20260503025216 | 39 | 202 | 2.6 | 2.6 | 0.00 | 0.00 | 0.00 | 34 | 1026.5 |
| 20260503024713 | 40 | 207 | 2.6 | 2.6 | 0.00 | 0.00 | 0.00 | 37 | 1026.8 |
| 20260503024210 | 40 | 211 | 2.6 | 2.6 | 0.00 | 0.00 | 0.00 | 32 | 1026.5 |
| 20260503023707 | 41 | 210 | 2.6 | 2.6 | 0.00 | 0.00 | 0.00 | 39 | 1026.8 |
| 20260503023204 | 41 | 222 | 1.7 | 2.6 | 0.00 | 0.00 | 0.00 | 34 | 1026.8 |
| 20260503022700 | 41 | 219 | 2.6 | 2.6 | 0.00 | 0.00 | 0.00 | 35 | 1026.6 |
| 20260503022159 | 41 | 200 | 1.7 | 2.6 | 0.00 | 0.00 | 0.00 | 35 | 1026.5 |
| 20260503021656 | 40 | 211 | 1.7 | 2.6 | 0.00 | 0.00 | 0.00 | 39 | 1026.5 |
| 20260503021153 | 40 | 208 | 1.7 | 2.6 | 0.00 | 0.00 | 0.00 | 37 | 1026.6 |
| 20260503020650 | 40 | 214 | 1.7 | 2.6 | 0.00 | 0.00 | 0.00 | 42 | 1026.4 |
| 20260503020148 | 40 | 221 | 1.7 | 1.7 | 0.00 | 0.00 | 0.00 | 42 | 1026.2 |
| 20260503015644 | 40 | 211 | 1.7 | 2.6 | 0.00 | 0.00 | 0.00 | 33 | 1026.4 |
| 20260503015141 | 41 | 210 | 2.6 | 2.6 | 0.00 | 0.00 | 0.00 | 33 | 1026.2 |
| 20260503014637 | 41 | 220 | 1.7 | 2.6 | 0.00 | 0.00 | 0.00 | 36 | 1026.1 |
| 20260503014135 | 42 | 217 | 1.7 | 2.6 | 0.00 | 0.00 | 0.00 | 40 | 1026.4 |
| 20260503013632 | 42 | 213 | 1.7 | 2.6 | 0.00 | 0.00 | 0.00 | 36 | 1026.2 |
| 20260503013130 | 43 | 216 | 1.7 | 2.6 | 0.00 | 0.00 | 0.00 | 31 | 1026.0 |
| 20260503012627 | 44 | 224 | 1.7 | 1.7 | 0.00 | 0.00 | 0.00 | 33 | 1026.1 |
| 20260503012124 | 43 | 229 | 1.7 | 2.6 | 0.00 | 0.00 | 0.00 | 31 | 1026.1 |
| 20260503011620 | 43 | 235 | 0.9 | 1.7 | 0.00 | 0.00 | 0.00 | 38 | 1026.1 |
| 20260503011118 | 44 | 227 | 1.7 | 1.7 | 0.00 | 0.00 | 0.00 | 35 | 1026.0 |
| 20260503010614 | 45 | 271 | 1.7 | 2.6 | 0.00 | 0.00 | 0.00 | 27 | 1026.0 |
| 20260503010111 | 48 | 244 | 0.9 | 0.9 | 0.00 | 0.00 | 0.00 | 31 | 1026.1 |
| 20260503005608 | 49 | 67 | 3.5 | 3.5 | 0.00 | 0.00 | 0.00 | 23 | 1026.0 |
| 20260503005106 | 48 | 53 | 1.7 | 2.6 | 0.00 | 0.00 | 0.00 | 23 | 1026.0 |
| 20260503004601 | 48 | 241 | 0.0 | 1.7 | 0.00 | 0.00 | 0.00 | 33 | 1026.1 |
| 20260503004100 | 48 | 253 | 0.0 | 1.7 | 0.00 | 0.00 | 0.00 | 26 | 1025.7 |
| 20260503003556 | 49 | 263 | 0.0 | 0.9 | 0.00 | 0.00 | 0.00 | 26 | 1025.8 |
| 20260503003053 | 49 | 256 | 0.0 | 1.7 | 0.00 | 0.00 | 0.00 | 28 | 1025.8 |
| 20260503002550 | 50 | 242 | 0.9 | 2.6 | 0.00 | 0.00 | 0.00 | 24 | 1026.0 |
| 20260503002047 | 50 | 265 | 0.0 | 1.7 | 0.00 | 0.00 | 0.00 | 24 | 1026.1 |
| 20260503001543 | 51 | 77 | 1.7 | 2.6 | 0.00 | 0.00 | 0.00 | 24 | 1026.1 |
| 20260503001041 | 51 | 258 | 0.0 | 1.7 | 0.00 | 0.00 | 0.00 | 23 | 1026.4 |
| 20260503000538 | 51 | 83 | 1.7 | 7.0 | 0.00 | 0.00 | 0.00 | 21 | 1025.8 |
| 20260503000035 | 52 | 183 | 0.9 | 1.7 | 0.00 | 0.00 | 0.00 | 22 | 1026.2 |
| 20260502235531 | 52 | 208 | 0.9 | 1.7 | 0.00 | 0.00 | 0.00 | 25 | 1026.0 |
| 20260502235030 | 51 | 276 | 1.7 | 2.6 | 0.00 | 0.00 | 0.00 | 22 | 1026.0 |
| 20260502234525 | 52 | 345 | 2.6 | 6.1 | 0.00 | 0.00 | 0.00 | 22 | 1026.1 |
| 20260502234023 | 53 | 225 | 3.5 | 5.2 | 0.00 | 0.00 | 0.00 | 22 | 1026.2 |
| 20260502233524 | 53 | 239 | 1.7 | 3.5 | 0.00 | 0.00 | 0.00 | 22 | 1026.1 |
| 20260502233021 | 52 | 342 | 0.9 | 2.6 | 0.00 | 0.00 | 0.00 | 22 | 1026.2 |
| 20260502232517 | 53 | 143 | 2.6 | 3.5 | 0.00 | 0.00 | 0.00 | 25 | 1026.2 |
| 20260502232014 | 53 | 59 | 2.6 | 5.2 | 0.00 | 0.00 | 0.00 | 23 | 1026.0 |
| 20260502231511 | 52 | 262 | 0.9 | 5.2 | 0.00 | 0.00 | 0.00 | 24 | 1026.2 |
| 20260502231009 | 51 | 296 | 0.0 | 3.5 | 0.00 | 0.00 | 0.00 | 26 | 1026.4 |
| 20260502230507 | 52 | 62 | 2.6 | 7.0 | 0.00 | 0.00 | 0.00 | 25 | 1026.2 |
| 20260502230006 | 51 | 315 | 2.6 | 3.5 | 0.00 | 0.00 | 0.00 | 29 | 1026.1 |
| 20260502225501 | 51 | 337 | 1.7 | 3.5 | 0.00 | 0.00 | 0.00 | 26 | 1026.2 |
| 20260502224958 | 51 | 305 | 0.9 | 1.7 | 0.00 | 0.00 | 0.00 | 25 | 1026.0 |
| 20260502224454 | 53 | 305 | 1.7 | 2.6 | 0.00 | 0.00 | 0.00 | 26 | 1026.1 |
| 20260502223951 | 53 | 305 | 3.5 | 6.1 | 0.00 | 0.00 | 0.00 | 25 | 1026.2 |
| 20260502223449 | 53 | 290 | 3.5 | 6.1 | 0.00 | 0.00 | 0.00 | 26 | 1026.4 |
| 20260502222947 | 51 | 256 | 0.9 | 5.2 | 0.00 | 0.00 | 0.00 | 24 | 1026.2 |
| 20260502222444 | 51 | 135 | 5.2 | 7.8 | 0.00 | 0.00 | 0.00 | 27 | 1026.4 |
| 20260502221939 | 52 | 258 | 0.0 | 1.7 | 0.00 | 0.00 | 0.00 | 28 | 1026.4 |
| 20260502221436 | 51 | 254 | 0.0 | 0.9 | 0.00 | 0.00 | 0.00 | 31 | 1026.2 |
| 20260502220933 | 50 | 273 | 1.7 | 2.6 | 0.00 | 0.00 | 0.00 | 30 | 1026.6 |
| 20260502220428 | 50 | 265 | 1.7 | 5.2 | 0.00 | 0.00 | 0.00 | 29 | 1026.5 |
| 20260502215925 | 50 | 152 | 2.6 | 6.1 | 0.00 | 0.00 | 0.00 | 30 | 1026.6 |
| 20260502215423 | 49 | 356 | 3.5 | 5.2 | 0.00 | 0.00 | 0.00 | 31 | 1026.5 |
| 20260502214920 | 49 | 299 | 0.9 | 7.0 | 0.00 | 0.00 | 0.00 | 32 | 1026.6 |
| 20260502214416 | 49 | 30 | 2.6 | 5.2 | 0.00 | 0.00 | 0.00 | 30 | 1026.8 |
| 20260502213914 | 50 | 254 | 0.9 | 5.2 | 0.00 | 0.00 | 0.00 | 32 | 1026.8 |
| 20260502213410 | 51 | 330 | 1.7 | 7.8 | 0.00 | 0.00 | 0.00 | 32 | 1026.9 |
| 20260502212909 | 52 | 349 | 3.5 | 5.2 | 0.00 | 0.00 | 0.00 | 31 | 1026.9 |
| 20260502212408 | 50 | 5 | 1.7 | 5.2 | 0.00 | 0.00 | 0.00 | 31 | 1026.9 |
| 20260502211904 | 50 | 354 | 0.9 | 8.7 | 0.00 | 0.00 | 0.00 | 33 | 1026.9 |
| 20260502211400 | 50 | 356 | 3.5 | 6.1 | 0.00 | 0.00 | 0.00 | 30 | 1026.9 |
| 20260502210858 | 52 | 69 | 6.1 | 7.8 | 0.00 | 0.00 | 0.00 | 30 | 1027.3 |
| 20260502210354 | 53 | 315 | 1.7 | 2.6 | 0.00 | 0.00 | 0.00 | 32 | 1027.3 |
| 20260502205852 | 53 | 245 | 1.7 | 8.7 | 0.00 | 0.00 | 0.00 | 30 | 1027.4 |
| 20260502205347 | 52 | 229 | 2.6 | 6.1 | 0.00 | 0.00 | 0.00 | 28 | 1027.4 |
| 20260502204845 | 53 | 346 | 3.5 | 6.1 | 0.00 | 0.00 | 0.00 | 29 | 1027.3 |
| 20260502204342 | 51 | 359 | 4.3 | 7.0 | 0.00 | 0.00 | 0.00 | 30 | 1027.5 |
| 20260502203840 | 52 | 260 | 0.9 | 5.2 | 0.00 | 0.00 | 0.00 | 29 | 1027.5 |
| 20260502203337 | 51 | 176 | 6.1 | 9.6 | 0.00 | 0.00 | 0.00 | 29 | 1027.4 |
| 20260502202832 | 52 | 42 | 4.3 | 6.1 | 0.00 | 0.00 | 0.00 | 28 | 1027.7 |
| 20260502202330 | 54 | 33 | 8.7 | 11.3 | 0.00 | 0.00 | 0.00 | 28 | 1027.7 |
| 20260502201828 | 51 | 336 | 1.7 | 6.1 | 0.00 | 0.00 | 0.00 | 31 | 1027.3 |
| 20260502201324 | 51 | 64 | 5.2 | 7.0 | 0.00 | 0.00 | 0.00 | 28 | 1027.5 |
| 20260502200820 | 51 | 293 | 2.6 | 5.2 | 0.00 | 0.00 | 0.00 | 26 | 1027.5 |
| 20260502200316 | 51 | 0 | 5.2 | 7.0 | 0.00 | 0.00 | 0.00 | 28 | 1027.7 |
| 20260502195814 | 53 | 356 | 4.3 | 7.0 | 0.00 | 0.00 | 0.00 | 28 | 1027.5 |
| 20260502195310 | 53 | 239 | 1.7 | 2.6 | 0.00 | 0.00 | 0.00 | 30 | 1027.3 |
| 20260502194807 | 52 | 262 | 1.7 | 2.6 | 0.00 | 0.00 | 0.00 | 27 | 1027.4 |
| 20260502194304 | 50 | 253 | 1.7 | 2.6 | 0.00 | 0.00 | 0.00 | 28 | 1027.7 |
| 20260502193800 | 51 | 91 | 4.3 | 7.0 | 0.00 | 0.00 | 0.00 | 26 | 1027.9 |
| 20260502193257 | 51 | 258 | 5.2 | 7.8 | 0.00 | 0.00 | 0.00 | 27 | 1027.8 |
| 20260502192752 | 51 | 294 | 0.9 | 6.1 | 0.00 | 0.00 | 0.00 | 32 | 1027.8 |
| 20260502192250 | 51 | 223 | 3.5 | 7.0 | 0.00 | 0.00 | 0.00 | 29 | 1027.8 |
| 20260502191746 | 51 | 259 | 2.6 | 6.1 | 0.00 | 0.00 | 0.00 | 28 | 1027.8 |
| 20260502191244 | 50 | 224 | 1.7 | 2.6 | 0.00 | 0.00 | 0.00 | 27 | 1027.9 |
| 20260502190741 | 49 | 230 | 2.6 | 7.0 | 0.00 | 0.00 | 0.00 | 28 | 1027.8 |
| 20260502190238 | 50 | 53 | 7.0 | 8.7 | 0.00 | 0.00 | 0.00 | 28 | 1028.1 |
| 20260502185733 | 49 | 340 | 4.3 | 7.0 | 0.00 | 0.00 | 0.00 | 31 | 1028.1 |
| 20260502185229 | 50 | 209 | 0.9 | 5.2 | 0.00 | 0.00 | 0.00 | 26 | 1028.1 |
| 20260502184726 | 50 | 229 | 3.5 | 5.2 | 0.00 | 0.00 | 0.00 | 25 | 1027.9 |
| 20260502184222 | 49 | 130 | 0.9 | 5.2 | 0.00 | 0.00 | 0.00 | 31 | 1028.1 |
| 20260502183719 | 50 | 323 | 0.9 | 5.2 | 0.00 | 0.00 | 0.00 | 27 | 1028.2 |
| 20260502183214 | 51 | 275 | 0.9 | 3.5 | 0.00 | 0.00 | 0.00 | 33 | 1028.2 |
| 20260502182710 | 48 | 28 | 1.7 | 3.5 | 0.00 | 0.00 | 0.00 | 29 | 1028.3 |
| 20260502182205 | 48 | 100 | 2.6 | 3.5 | 0.00 | 0.00 | 0.00 | 28 | 1028.5 |
| 20260502181703 | 48 | 29 | 1.7 | 6.1 | 0.00 | 0.00 | 0.00 | 29 | 1028.2 |
| 20260502181202 | 47 | 9 | 1.7 | 7.8 | 0.00 | 0.00 | 0.00 | 34 | 1028.3 |
| 20260502180659 | 50 | 156 | 0.9 | 3.5 | 0.00 | 0.00 | 0.00 | 30 | 1028.5 |
| 20260502180156 | 47 | 79 | 2.6 | 3.5 | 0.00 | 0.00 | 0.00 | 30 | 1028.7 |
| 20260502170120 | 48 | 234 | 1.7 | 2.6 | 0.00 | 0.00 | 0.00 | 32 | 1028.5 |
| 20260502164107 | 44 | 287 | 3.5 | 7.8 | 0.00 | 0.00 | 0.00 | 32 | 1028.3 |
| 20260502163603 | 45 | 348 | 3.5 | 6.1 | 0.00 | 0.00 | 0.00 | 32 | 1028.3 |
| 20260502163059 | 44 | 25 | 2.6 | 5.2 | 0.00 | 0.00 | 0.00 | 31 | 1028.3 |
| 20260502162556 | 45 | 315 | 7.0 | 7.8 | 0.00 | 0.00 | 0.00 | 32 | 1028.6 |
| 20260502162054 | 45 | 309 | 0.9 | 2.6 | 0.00 | 0.00 | 0.00 | 33 | 1028.5 |
| 20260502161550 | 44 | 333 | 2.6 | 6.1 | 0.00 | 0.00 | 0.00 | 34 | 1028.5 |
| 20260502161048 | 45 | 287 | 3.5 | 7.0 | 0.00 | 0.00 | 0.00 | 32 | 1028.3 |
| 20260502160546 | 44 | 253 | 0.0 | 3.5 | 0.00 | 0.00 | 0.00 | 35 | 1028.3 |
| 20260502151959 | 42 | 251 | 0.0 | 0.9 | 0.00 | 0.00 | 0.00 | 35 | 1028.6 |
| 20260502151455 | 42 | 325 | 4.3 | 5.2 | 0.00 | 0.00 | 0.00 | 34 | 1029.0 |
| 20260502150953 | 42 | 265 | 0.0 | 2.6 | 0.00 | 0.00 | 0.00 | 32 | 1028.9 |
| 20260502150450 | 41 | 297 | 0.9 | 1.7 | 0.00 | 0.00 | 0.00 | 34 | 1028.9 |
| 20260502130336 | 35 | 246 | 0.0 | 2.6 | 0.00 | 0.00 | 0.00 | 49 | 1028.5 |
| 20260502123318 | 32 | 246 | 1.7 | 1.7 | 0.00 | 0.00 | 0.00 | 57 | 1028.3 |
| 20260502122815 | 32 | 228 | 1.7 | 3.5 | 0.00 | 0.00 | 0.00 | 55 | 1028.2 |
| 20260502122310 | 32 | 225 | 2.6 | 2.6 | 0.00 | 0.00 | 0.00 | 55 | 1028.3 |
| 20260502121809 | 31 | 220 | 2.6 | 2.6 | 0.00 | 0.00 | 0.00 | 55 | 1028.3 |
| 20260502121306 | 31 | 229 | 1.7 | 2.6 | 0.00 | 0.00 | 0.00 | 55 | 1028.3 |
| 20260502120803 | 32 | 239 | 2.6 | 3.5 | 0.00 | 0.00 | 0.00 | 54 | 1028.2 |
| 20260502120300 | 32 | 219 | 2.6 | 3.5 | 0.00 | 0.00 | 0.00 | 54 | 1027.8 |
| 20260502115757 | 30 | 235 | 1.7 | 2.6 | 0.00 | 0.00 | 0.00 | 57 | 1028.2 |
| 20260502115254 | 31 | 214 | 1.7 | 2.6 | 0.00 | 0.00 | 0.00 | 55 | 1028.1 |
| 20260502114750 | 31 | 222 | 1.7 | 2.6 | 0.00 | 0.00 | 0.00 | 57 | 1027.8 |
| 20260502114247 | 31 | 216 | 2.6 | 3.5 | 0.00 | 0.00 | 0.00 | 57 | 1028.1 |
| 20260502113744 | 30 | 230 | 0.9 | 2.6 | 0.00 | 0.00 | 0.00 | 60 | 1028.1 |
| 20260502113242 | 30 | 217 | 1.7 | 2.6 | 0.00 | 0.00 | 0.00 | 61 | 1028.2 |
| 20260502112740 | 30 | 211 | 2.6 | 2.6 | 0.00 | 0.00 | 0.00 | 61 | 1027.9 |
| 20260502112237 | 31 | 222 | 2.6 | 2.6 | 0.00 | 0.00 | 0.00 | 58 | 1027.9 |
| 20260502111734 | 31 | 228 | 1.7 | 2.6 | 0.00 | 0.00 | 0.00 | 61 | 1028.1 |
| 20260502111232 | 32 | 228 | 3.5 | 3.5 | 0.00 | 0.00 | 0.00 | 56 | 1027.9 |
| 20260502110729 | 32 | 242 | 2.6 | 5.2 | 0.00 | 0.00 | 0.00 | 55 | 1028.2 |
| 20260502110227 | 32 | 230 | 2.6 | 3.5 | 0.00 | 0.00 | 0.00 | 55 | 1028.1 |
| 20260502105724 | 32 | 223 | 2.6 | 3.5 | 0.00 | 0.00 | 0.00 | 55 | 1028.1 |
| 20260502105220 | 32 | 225 | 1.7 | 3.5 | 0.00 | 0.00 | 0.00 | 57 | 1027.8 |
| 20260502104718 | 32 | 198 | 3.5 | 5.2 | 0.00 | 0.00 | 0.00 | 55 | 1028.1 |
| 20260502104216 | 31 | 251 | 2.6 | 5.2 | 0.00 | 0.00 | 0.00 | 57 | 1028.2 |
| 20260502103713 | 32 | 237 | 2.6 | 3.5 | 0.00 | 0.00 | 0.00 | 56 | 1028.1 |
| 20260502103211 | 32 | 222 | 1.7 | 2.6 | 0.00 | 0.00 | 0.00 | 58 | 1028.2 |
| 20260502102707 | 32 | 230 | 2.6 | 3.5 | 0.00 | 0.00 | 0.00 | 57 | 1028.1 |
| 20260502102204 | 31 | 239 | 1.7 | 6.1 | 0.00 | 0.00 | 0.00 | 57 | 1028.2 |
| 20260502101702 | 30 | 222 | 1.7 | 2.6 | 0.00 | 0.00 | 0.00 | 64 | 1027.9 |
| 20260502101200 | 30 | 229 | 3.5 | 3.5 | 0.00 | 0.00 | 0.00 | 64 | 1028.2 |
| 20260502100658 | 30 | 233 | 1.7 | 2.6 | 0.00 | 0.00 | 0.00 | 63 | 1027.9 |
| 20260502100156 | 30 | 216 | 2.6 | 3.5 | 0.00 | 0.00 | 0.00 | 65 | 1027.9 |
| 20260502091130 | 27 | 218 | 2.6 | 3.5 | 0.00 | 0.00 | 0.00 | 75 | 1027.8 |
| 20260502090627 | 27 | 201 | 2.6 | 2.6 | 0.00 | 0.00 | 0.00 | 77 | 1027.8 |
| 20260502090124 | 27 | 209 | 2.6 | 2.6 | 0.00 | 0.00 | 0.00 | 77 | 1027.7 |
| 20260502071522 | 27 | 204 | 2.6 | 2.6 | 0.00 | 0.00 | 0.00 | 81 | 1028.3 |
| 20260502071020 | 27 | 212 | 2.6 | 3.5 | 0.00 | 0.00 | 0.00 | 79 | 1028.3 |
| 20260502070518 | 27 | 206 | 2.6 | 2.6 | 0.00 | 0.00 | 0.00 | 81 | 1028.5 |
| 20260502070016 | 27 | 211 | 2.6 | 2.6 | 0.00 | 0.00 | 0.00 | 82 | 1028.5 |
| 20260502065514 | 26 | 212 | 2.6 | 2.6 | 0.00 | 0.00 | 0.00 | 82 | 1028.3 |
| 20260502065011 | 26 | 210 | 1.7 | 2.6 | 0.00 | 0.00 | 0.00 | 83 | 1028.6 |
| 20260502064510 | 26 | 215 | 1.7 | 2.6 | 0.00 | 0.00 | 0.00 | 83 | 1028.6 |
| 20260502064006 | 26 | 208 | 2.6 | 2.6 | 0.00 | 0.00 | 0.00 | 83 | 1028.6 |
| 20260502063504 | 26 | 208 | 2.6 | 2.6 | 0.00 | 0.00 | 0.00 | 83 | 1028.5 |
| 20260502063002 | 27 | 211 | 1.7 | 2.6 | 0.00 | 0.00 | 0.00 | 83 | 1028.6 |
| 20260502062458 | 27 | 207 | 2.6 | 2.6 | 0.00 | 0.00 | 0.00 | 83 | 1028.7 |
| 20260502061957 | 27 | 211 | 2.6 | 2.6 | 0.00 | 0.00 | 0.00 | 84 | 1028.6 |
| 20260502061454 | 27 | 210 | 1.7 | 2.6 | 0.00 | 0.00 | 0.00 | 83 | 1028.5 |
| 20260502060950 | 27 | 214 | 1.7 | 2.6 | 0.00 | 0.00 | 0.00 | 84 | 1028.6 |
| 20260502060446 | 27 | 218 | 1.7 | 1.7 | 0.00 | 0.00 | 0.00 | 83 | 1028.6 |
| 20260502055943 | 27 | 219 | 1.7 | 2.6 | 0.00 | 0.35 | 0.35 | 82 | 1029.0 |
| 20260502055440 | 27 | 215 | 1.7 | 2.6 | 0.00 | 0.35 | 0.35 | 83 | 1028.5 |
| 20260502054935 | 27 | 220 | 1.7 | 1.7 | 0.00 | 0.35 | 0.35 | 83 | 1028.7 |
| 20260502054432 | 27 | 212 | 2.6 | 2.6 | 0.00 | 0.35 | 0.35 | 83 | 1028.5 |
| 20260502053929 | 27 | 218 | 1.7 | 2.6 | 0.00 | 0.35 | 0.35 | 83 | 1028.7 |
| 20260502053426 | 27 | 209 | 2.6 | 2.6 | 0.00 | 0.35 | 0.35 | 83 | 1028.7 |
| 20260502052924 | 28 | 214 | 1.7 | 2.6 | 0.00 | 0.35 | 0.35 | 84 | 1028.6 |
| 20260502052422 | 28 | 220 | 2.6 | 2.6 | 0.00 | 0.35 | 0.35 | 82 | 1028.7 |
| 20260502051920 | 28 | 207 | 2.6 | 2.6 | 0.00 | 0.35 | 0.35 | 80 | 1028.6 |
| 20260502051418 | 28 | 201 | 2.6 | 2.6 | 0.00 | 0.35 | 0.35 | 80 | 1028.6 |
| 20260502050914 | 28 | 222 | 1.7 | 2.6 | 0.00 | 0.35 | 0.35 | 80 | 1028.6 |
| 20260502050411 | 28 | 225 | 0.9 | 2.6 | 0.00 | 0.35 | 0.35 | 80 | 1028.5 |
| 20260502045908 | 28 | 225 | 1.7 | 2.6 | 0.00 | 0.35 | 0.35 | 80 | 1028.6 |
| 20260502045405 | 28 | 212 | 2.6 | 2.6 | 0.00 | 0.35 | 0.35 | 79 | 1028.6 |
| 20260502044902 | 29 | 207 | 1.7 | 2.6 | 0.00 | 0.35 | 0.35 | 79 | 1028.6 |
| 20260502044358 | 29 | 233 | 0.9 | 1.7 | 0.00 | 0.35 | 0.35 | 79 | 1028.5 |
| 20260502043855 | 29 | 246 | 1.7 | 2.6 | 0.00 | 0.35 | 0.35 | 80 | 1028.3 |
| 20260502043353 | 29 | 242 | 0.0 | 1.7 | 0.00 | 0.35 | 0.35 | 80 | 1028.3 |
| 20260502042852 | 29 | 225 | 0.9 | 1.7 | 0.00 | 0.35 | 0.35 | 82 | 1028.2 |
| 20260502042350 | 29 | 211 | 1.7 | 2.6 | 0.00 | 0.35 | 0.35 | 80 | 1028.5 |
| 20260502041847 | 29 | 226 | 0.9 | 1.7 | 0.00 | 0.35 | 0.35 | 82 | 1028.3 |
| 20260502041344 | 29 | 225 | 1.7 | 2.6 | 0.00 | 0.35 | 0.35 | 82 | 1028.3 |
| 20260502040841 | 28 | 202 | 2.6 | 2.6 | 0.00 | 0.35 | 0.35 | 81 | 1028.3 |
| 20260502040338 | 28 | 215 | 1.7 | 2.6 | 0.00 | 0.35 | 0.35 | 83 | 1028.3 |
| 20260502035834 | 29 | 226 | 1.7 | 2.6 | 0.00 | 0.35 | 0.35 | 83 | 1028.1 |
| 20260502035331 | 29 | 215 | 1.7 | 2.6 | 0.00 | 0.35 | 0.35 | 84 | 1027.9 |
| 20260502034828 | 29 | 211 | 1.7 | 2.6 | 0.00 | 0.35 | 0.35 | 83 | 1028.1 |
| 20260502034326 | 29 | 216 | 2.6 | 2.6 | 0.00 | 0.35 | 0.35 | 82 | 1028.2 |
| 20260502033825 | 29 | 206 | 2.6 | 2.6 | 0.00 | 0.35 | 0.35 | 83 | 1027.9 |
| 20260502033322 | 29 | 207 | 2.6 | 2.6 | 0.00 | 0.35 | 0.35 | 83 | 1027.7 |